| time (UTC) | temp C | wind direction | speed KPH | gust KPH | rain 1hr cm | rain 24hr cm | rain mn cm | humidity % | barometer mb |
| 20260905001931 | 32 | 130 | 4.8 | 4.8 | 0.00 | 0.00 | 0.00 | 50 | 1015.2 |
| 20260905001427 | 32 | 222 | 3.2 | 4.8 | 0.00 | 0.00 | 0.00 | 49 | 1015.2 |
| 20260905000921 | 32 | 210 | 4.8 | 8.0 | 0.00 | 0.00 | 0.00 | 48 | 1015.4 |
| 20260905000417 | 32 | 207 | 3.2 | 4.8 | 0.00 | 0.00 | 0.00 | 46 | 1015.0 |
| 20260904235912 | 32 | 210 | 6.4 | 9.7 | 0.00 | 0.00 | 0.00 | 45 | 1015.2 |
| 20260904235408 | 32 | 206 | 9.7 | 11.3 | 0.00 | 0.00 | 0.00 | 44 | 1015.2 |
| 20260904234908 | 33 | 176 | 4.8 | 8.0 | 0.00 | 0.00 | 0.00 | 43 | 1014.9 |
| 20260904234402 | 33 | 164 | 3.2 | 4.8 | 0.00 | 0.00 | 0.00 | 44 | 1015.1 |
| 20260904233858 | 33 | 176 | 4.8 | 4.8 | 0.00 | 0.00 | 0.00 | 44 | 1015.0 |
| 20260904233354 | 33 | 212 | 8.0 | 11.3 | 0.00 | 0.00 | 0.00 | 43 | 1015.0 |
| 20260904232850 | 33 | 156 | 6.4 | 9.7 | 0.00 | 0.00 | 0.00 | 43 | 1014.8 |
| 20260904232346 | 33 | 161 | 4.8 | 8.0 | 0.00 | 0.00 | 0.00 | 43 | 1014.5 |
| 20260904231843 | 33 | 181 | 6.4 | 9.7 | 0.00 | 0.00 | 0.00 | 43 | 1014.8 |
| 20260904231342 | 33 | 195 | 1.6 | 1.6 | 0.00 | 0.00 | 0.00 | 46 | 1015.1 |
| 20260904230838 | 33 | 160 | 8.0 | 9.7 | 0.00 | 0.00 | 0.00 | 45 | 1015.0 |
| 20260904230336 | 33 | 141 | 8.0 | 11.3 | 0.00 | 0.00 | 0.00 | 45 | 1014.9 |
| 20260904225832 | 34 | 182 | 3.2 | 3.2 | 0.00 | 0.00 | 0.00 | 45 | 1015.3 |
| 20260904225330 | 34 | 184 | 8.0 | 11.3 | 0.00 | 0.00 | 0.00 | 44 | 1015.1 |
| 20260904224829 | 34 | 117 | 8.0 | 11.3 | 0.00 | 0.00 | 0.00 | 44 | 1015.3 |
| 20260904224325 | 34 | 189 | 6.4 | 8.0 | 0.00 | 0.00 | 0.00 | 41 | 1015.2 |
| 20260904223824 | 33 | 214 | 6.4 | 8.0 | 0.00 | 0.00 | 0.00 | 47 | 1015.4 |
| 20260904223319 | 33 | 186 | 6.4 | 8.0 | 0.00 | 0.00 | 0.00 | 47 | 1015.3 |
| 20260904222816 | 34 | 211 | 3.2 | 4.8 | 0.00 | 0.00 | 0.00 | 45 | 1015.3 |
| 20260904222315 | 33 | 169 | 9.7 | 11.3 | 0.00 | 0.00 | 0.00 | 47 | 1015.2 |
| 20260904221810 | 33 | 118 | 9.7 | 11.3 | 0.00 | 0.00 | 0.00 | 49 | 1015.3 |
| 20260904221310 | 33 | 215 | 3.2 | 4.8 | 0.00 | 0.00 | 0.00 | 51 | 1015.3 |
| 20260904220806 | 33 | 191 | 8.0 | 9.7 | 0.00 | 0.00 | 0.00 | 52 | 1015.4 |
| 20260904220305 | 34 | 224 | 6.4 | 9.7 | 0.00 | 0.00 | 0.00 | 52 | 1015.5 |
| 20260904215800 | 34 | 196 | 8.0 | 12.9 | 0.00 | 0.00 | 0.00 | 51 | 1015.3 |
| 20260904215255 | 33 | 143 | 12.9 | 16.1 | 0.00 | 0.00 | 0.00 | 52 | 1015.4 |
| 20260904214751 | 33 | 165 | 8.0 | 11.3 | 0.00 | 0.00 | 0.00 | 52 | 1015.5 |
| 20260904214247 | 33 | 138 | 9.7 | 11.3 | 0.00 | 0.00 | 0.00 | 50 | 1015.6 |
| 20260904213745 | 33 | 169 | 8.0 | 11.3 | 0.00 | 0.00 | 0.00 | 52 | 1015.5 |
| 20260904213241 | 33 | 221 | 8.0 | 11.3 | 0.00 | 0.00 | 0.00 | 53 | 1015.7 |
| 20260904212736 | 33 | 187 | 4.8 | 8.0 | 0.00 | 0.00 | 0.00 | 55 | 1015.7 |
| 20260904212236 | 33 | 206 | 4.8 | 4.8 | 0.00 | 0.00 | 0.00 | 54 | 1015.6 |
| 20260904211731 | 33 | 129 | 9.7 | 14.5 | 0.00 | 0.00 | 0.00 | 55 | 1015.7 |
| 20260904211226 | 33 | 208 | 0.0 | 1.6 | 0.00 | 0.00 | 0.00 | 54 | 1015.8 |
| 20260904210721 | 35 | 158 | 11.3 | 14.5 | 0.00 | 0.00 | 0.00 | 53 | 1015.9 |
| 20260904210216 | 35 | 188 | 3.2 | 4.8 | 0.00 | 0.00 | 0.00 | 51 | 1016.0 |
| 20260904205712 | 33 | 196 | 4.8 | 8.0 | 0.00 | 0.00 | 0.00 | 53 | 1015.9 |
| 20260904205208 | 34 | 97 | 4.8 | 4.8 | 0.00 | 0.00 | 0.00 | 53 | 1015.9 |
| 20260904204703 | 34 | 160 | 4.8 | 8.0 | 0.00 | 0.00 | 0.00 | 52 | 1016.2 |
| 20260904204159 | 34 | 198 | 4.8 | 8.0 | 0.00 | 0.00 | 0.00 | 53 | 1016.1 |
| 20260904203655 | 34 | 230 | 0.0 | 0.0 | 0.00 | 0.00 | 0.00 | 56 | 1016.3 |
| 20260904203152 | 34 | 203 | 6.4 | 8.0 | 0.00 | 0.00 | 0.00 | 56 | 1016.3 |
| 20260904202647 | 34 | 160 | 6.4 | 8.0 | 0.00 | 0.00 | 0.00 | 56 | 1016.2 |
| 20260904202143 | 34 | 129 | 4.8 | 4.8 | 0.00 | 0.00 | 0.00 | 56 | 1016.3 |
| 20260904201638 | 34 | 176 | 4.8 | 8.0 | 0.00 | 0.00 | 0.00 | 55 | 1016.3 |
| 20260904201132 | 33 | 230 | 4.8 | 4.8 | 0.00 | 0.00 | 0.00 | 57 | 1016.5 |
| 20260904200627 | 33 | 155 | 9.7 | 11.3 | 0.00 | 0.00 | 0.00 | 60 | 1016.4 |
| 20260904200121 | 33 | 195 | 11.3 | 14.5 | 0.00 | 0.00 | 0.00 | 58 | 1016.6 |
| 20260904195620 | 33 | 201 | 11.3 | 16.1 | 0.00 | 0.00 | 0.00 | 59 | 1016.6 |
| 20260904195114 | 33 | 169 | 4.8 | 4.8 | 0.00 | 0.00 | 0.00 | 61 | 1016.6 |
| 20260904194614 | 33 | 206 | 6.4 | 8.0 | 0.00 | 0.00 | 0.00 | 61 | 1016.6 |
| 20260904194109 | 33 | 192 | 6.4 | 8.0 | 0.00 | 0.00 | 0.00 | 63 | 1016.7 |
| 20260904193603 | 33 | 181 | 8.0 | 9.7 | 0.00 | 0.00 | 0.00 | 63 | 1016.6 |
| 20260904193100 | 32 | 227 | 3.2 | 3.2 | 0.00 | 0.00 | 0.00 | 65 | 1017.1 |
| 20260904192559 | 32 | 133 | 3.2 | 3.2 | 0.00 | 0.00 | 0.00 | 64 | 1017.0 |
| 20260904192055 | 32 | 207 | 6.4 | 11.3 | 0.00 | 0.00 | 0.00 | 65 | 1017.2 |
| 20260904191552 | 32 | 144 | 6.4 | 8.0 | 0.00 | 0.00 | 0.00 | 65 | 1017.4 |
| 20260904191048 | 32 | 185 | 9.7 | 14.5 | 0.00 | 0.00 | 0.00 | 67 | 1017.5 |
| 20260904190543 | 31 | 186 | 8.0 | 9.7 | 0.00 | 0.00 | 0.00 | 68 | 1017.5 |
| 20260904190039 | 31 | 149 | 8.0 | 11.3 | 0.00 | 0.00 | 0.00 | 69 | 1017.6 |
| 20260904185536 | 32 | 214 | 6.4 | 9.7 | 0.00 | 0.00 | 0.00 | 67 | 1017.5 |
| 20260904185031 | 32 | 167 | 11.3 | 14.5 | 0.00 | 0.00 | 0.00 | 67 | 1017.4 |
| 20260904184530 | 31 | 168 | 8.0 | 11.3 | 0.00 | 0.00 | 0.00 | 68 | 1017.6 |
| 20260904184026 | 31 | 203 | 3.2 | 3.2 | 0.00 | 0.00 | 0.00 | 69 | 1017.7 |
| 20260904183521 | 31 | 221 | 4.8 | 8.0 | 0.00 | 0.00 | 0.00 | 69 | 1017.7 |
| 20260904183016 | 31 | 205 | 3.2 | 4.8 | 0.00 | 0.00 | 0.00 | 69 | 1017.9 |
| 20260904182512 | 31 | 172 | 3.2 | 4.8 | 0.00 | 0.00 | 0.00 | 69 | 1017.6 |
| 20260904182011 | 32 | 177 | 6.4 | 11.3 | 0.00 | 0.00 | 0.00 | 68 | 1017.6 |
| 20260904181507 | 31 | 183 | 9.7 | 11.3 | 0.00 | 0.00 | 0.00 | 68 | 1017.7 |
| 20260904181001 | 32 | 164 | 9.7 | 12.9 | 0.00 | 0.00 | 0.00 | 68 | 1017.8 |
| 20260904180456 | 32 | 193 | 8.0 | 9.7 | 0.00 | 0.00 | 0.00 | 68 | 1018.1 |
| 20260904175955 | 32 | 207 | 4.8 | 4.8 | 0.00 | 0.00 | 0.00 | 68 | 1017.9 |
| 20260904175450 | 31 | 180 | 3.2 | 9.7 | 0.00 | 0.00 | 0.00 | 69 | 1018.1 |
| 20260904174949 | 31 | 174 | 6.4 | 9.7 | 0.00 | 0.00 | 0.00 | 68 | 1018.0 |
| 20260904174445 | 31 | 195 | 4.8 | 4.8 | 0.00 | 0.00 | 0.00 | 71 | 1018.2 |
| 20260904173941 | 31 | 137 | 4.8 | 8.0 | 0.00 | 0.00 | 0.00 | 70 | 1018.2 |
| 20260904173441 | 31 | 160 | 6.4 | 11.3 | 0.00 | 0.00 | 0.00 | 69 | 1018.5 |
| 20260904172936 | 31 | 205 | 0.0 | 0.0 | 0.00 | 0.00 | 0.00 | 69 | 1018.3 |
| 20260904172431 | 31 | 215 | 4.8 | 8.0 | 0.00 | 0.00 | 0.00 | 68 | 1018.6 |
| 20260904171926 | 31 | 203 | 3.2 | 8.0 | 0.00 | 0.00 | 0.00 | 72 | 1018.2 |
| 20260904171422 | 31 | 245 | 3.2 | 4.8 | 0.00 | 0.00 | 0.00 | 69 | 1018.1 |
| 20260904170918 | 31 | 199 | 4.8 | 8.0 | 0.00 | 0.00 | 0.00 | 70 | 1018.3 |
| 20260904170413 | 31 | 196 | 1.6 | 3.2 | 0.00 | 0.00 | 0.00 | 70 | 1018.3 |
| 20260904165908 | 31 | 195 | 3.2 | 4.8 | 0.00 | 0.00 | 0.00 | 67 | 1018.5 |
| 20260904165407 | 31 | 182 | 4.8 | 8.0 | 0.00 | 0.00 | 0.00 | 68 | 1018.4 |
| 20260904164906 | 31 | 173 | 1.6 | 3.2 | 0.00 | 0.00 | 0.00 | 70 | 1018.3 |
| 20260904164401 | 30 | 222 | 0.0 | 0.0 | 0.00 | 0.00 | 0.00 | 75 | 1018.2 |
| 20260904163857 | 30 | 189 | 4.8 | 8.0 | 0.00 | 0.00 | 0.00 | 72 | 1018.2 |
| 20260904163357 | 30 | 168 | 1.6 | 3.2 | 0.00 | 0.00 | 0.00 | 73 | 1018.1 |
| 20260904162856 | 30 | 279 | 1.6 | 1.6 | 0.00 | 0.00 | 0.00 | 75 | 1018.3 |
| 20260904162352 | 30 | 184 | 0.0 | 0.0 | 0.00 | 0.00 | 0.00 | 77 | 1018.2 |
| 20260904161847 | 29 | 250 | 3.2 | 4.8 | 0.00 | 0.00 | 0.00 | 77 | 1018.2 |
| 20260904161342 | 29 | 281 | 3.2 | 3.2 | 0.00 | 0.00 | 0.00 | 78 | 1018.6 |
| 20260904160838 | 29 | 210 | 0.0 | 1.6 | 0.00 | 0.00 | 0.00 | 78 | 1018.3 |
| 20260904160333 | 29 | 210 | 0.0 | 0.0 | 0.00 | 0.00 | 0.00 | 78 | 1018.3 |
| 20260904155828 | 29 | 208 | 0.0 | 0.0 | 0.00 | 0.00 | 0.00 | 80 | 1018.3 |
| 20260904155322 | 29 | 223 | 1.6 | 4.8 | 0.00 | 0.00 | 0.00 | 80 | 1018.2 |
| 20260904154821 | 28 | 177 | 4.8 | 4.8 | 0.00 | 0.00 | 0.00 | 81 | 1018.0 |
| 20260904154315 | 28 | 173 | 3.2 | 3.2 | 0.00 | 0.00 | 0.00 | 81 | 1018.1 |
| 20260904153811 | 28 | 185 | 3.2 | 3.2 | 0.00 | 0.00 | 0.00 | 82 | 1018.2 |
| 20260904153306 | 28 | 182 | 1.6 | 3.2 | 0.00 | 0.00 | 0.00 | 83 | 1018.1 |
| 20260904152803 | 28 | 220 | 3.2 | 3.2 | 0.00 | 0.00 | 0.00 | 83 | 1018.2 |
| 20260904152257 | 28 | 181 | 3.2 | 3.2 | 0.00 | 0.00 | 0.00 | 84 | 1018.2 |
| 20260904151752 | 28 | 203 | 0.0 | 1.6 | 0.00 | 0.00 | 0.00 | 85 | 1018.0 |
| 20260904151251 | 27 | 190 | 4.8 | 4.8 | 0.00 | 0.00 | 0.00 | 86 | 1018.0 |
| 20260904150748 | 27 | 260 | 0.0 | 1.6 | 0.00 | 0.00 | 0.00 | 87 | 1018.2 |
| 20260904150243 | 27 | 206 | 1.6 | 1.6 | 0.00 | 0.00 | 0.00 | 87 | 1018.2 |
| 20260904145740 | 27 | 187 | 0.0 | 1.6 | 0.00 | 0.00 | 0.00 | 88 | 1018.2 |
| 20260904145236 | 27 | 211 | 1.6 | 3.2 | 0.00 | 0.00 | 0.00 | 88 | 1018.2 |
| 20260904144732 | 27 | 214 | 0.0 | 0.0 | 0.00 | 0.00 | 0.00 | 89 | 1018.3 |
| 20260904144227 | 27 | 222 | 1.6 | 1.6 | 0.00 | 0.00 | 0.00 | 89 | 1018.5 |
| 20260904143722 | 27 | 212 | 0.0 | 0.0 | 0.00 | 0.00 | 0.00 | 90 | 1018.5 |
| 20260904143220 | 27 | 216 | 0.0 | 1.6 | 0.00 | 0.00 | 0.00 | 91 | 1018.3 |
| 20260904142716 | 27 | 212 | 1.6 | 1.6 | 0.00 | 0.00 | 0.00 | 91 | 1018.4 |
| 20260904142211 | 27 | 199 | 0.0 | 0.0 | 0.00 | 0.00 | 0.00 | 92 | 1018.5 |
| 20260904141711 | 27 | 198 | 0.0 | 1.6 | 0.00 | 0.00 | 0.00 | 93 | 1018.3 |
| 20260904141207 | 27 | 197 | 1.6 | 3.2 | 0.00 | 0.00 | 0.00 | 92 | 1018.3 |
| 20260904140702 | 27 | 213 | 1.6 | 1.6 | 0.00 | 0.00 | 0.00 | 92 | 1018.2 |
| 20260904140157 | 27 | 213 | 1.6 | 1.6 | 0.00 | 0.00 | 0.00 | 92 | 1018.3 |
| 20260904135656 | 26 | 213 | 0.0 | 1.6 | 0.00 | 0.00 | 0.00 | 92 | 1018.3 |
| 20260904135152 | 26 | 176 | 3.2 | 3.2 | 0.00 | 0.00 | 0.00 | 92 | 1018.3 |
| 20260904134648 | 26 | 187 | 1.6 | 1.6 | 0.00 | 0.00 | 0.00 | 93 | 1018.1 |
| 20260904134146 | 26 | 215 | 1.6 | 1.6 | 0.00 | 0.00 | 0.00 | 93 | 1018.1 |
| 20260904133642 | 26 | 178 | 3.2 | 3.2 | 0.00 | 0.00 | 0.00 | 93 | 1018.3 |
| 20260904133138 | 26 | 210 | 3.2 | 3.2 | 0.00 | 0.00 | 0.00 | 93 | 1018.3 |
| 20260904132637 | 26 | 212 | 1.6 | 1.6 | 0.00 | 0.00 | 0.00 | 93 | 1018.1 |
| 20260904132132 | 26 | 213 | 0.0 | 0.0 | 0.00 | 0.00 | 0.00 | 94 | 1018.3 |
| 20260904131631 | 26 | 212 | 1.6 | 3.2 | 0.00 | 0.00 | 0.00 | 94 | 1018.1 |
| 20260904131128 | 26 | 213 | 1.6 | 3.2 | 0.00 | 0.00 | 0.00 | 94 | 1018.1 |
| 20260904130627 | 26 | 212 | 0.0 | 0.0 | 0.00 | 0.00 | 0.00 | 94 | 1018.2 |
| 20260904130122 | 26 | 213 | 0.0 | 0.0 | 0.00 | 0.00 | 0.00 | 94 | 1018.1 |
| 20260904125618 | 26 | 212 | 1.6 | 1.6 | 0.00 | 0.00 | 0.00 | 94 | 1017.9 |
| 20260904125113 | 26 | 212 | 1.6 | 1.6 | 0.00 | 0.00 | 0.00 | 94 | 1017.7 |
| 20260904124608 | 26 | 225 | 0.0 | 0.0 | 0.00 | 0.00 | 0.00 | 94 | 1017.7 |
| 20260904124104 | 26 | 213 | 0.0 | 0.0 | 0.00 | 0.00 | 0.00 | 94 | 1017.7 |
| 20260904123603 | 26 | 212 | 1.6 | 3.2 | 0.00 | 0.00 | 0.00 | 94 | 1017.7 |
| 20260904123059 | 26 | 196 | 3.2 | 3.2 | 0.00 | 0.00 | 0.00 | 94 | 1017.4 |
| 20260904122554 | 26 | 189 | 1.6 | 3.2 | 0.00 | 0.00 | 0.00 | 94 | 1017.5 |
| 20260904122049 | 26 | 194 | 3.2 | 3.2 | 0.00 | 0.00 | 0.00 | 94 | 1017.7 |
| 20260904121544 | 26 | 184 | 4.8 | 4.8 | 0.00 | 0.00 | 0.00 | 94 | 1017.3 |
| 20260904121040 | 26 | 213 | 0.0 | 0.0 | 0.00 | 0.00 | 0.00 | 94 | 1017.2 |
| 20260904120536 | 26 | 209 | 1.6 | 1.6 | 0.00 | 0.00 | 0.00 | 94 | 1017.1 |
| 20260904120031 | 26 | 185 | 6.4 | 8.0 | 0.00 | 0.00 | 0.00 | 94 | 1017.1 |
| 20260904115527 | 26 | 185 | 3.2 | 4.8 | 0.00 | 0.00 | 0.00 | 95 | 1016.6 |
| 20260904115027 | 26 | 187 | 3.2 | 4.8 | 0.00 | 0.00 | 0.00 | 95 | 1016.7 |
| 20260904114522 | 26 | 166 | 4.8 | 4.8 | 0.00 | 0.00 | 0.00 | 95 | 1017.0 |
| 20260904114021 | 26 | 184 | 4.8 | 8.0 | 0.00 | 0.00 | 0.00 | 95 | 1016.7 |
| 20260904113516 | 26 | 212 | 0.0 | 0.0 | 0.00 | 0.00 | 0.00 | 95 | 1016.8 |
| 20260904113016 | 26 | 139 | 3.2 | 3.2 | 0.00 | 0.00 | 0.00 | 94 | 1016.4 |
| 20260904112511 | 26 | 171 | 1.6 | 3.2 | 0.00 | 0.00 | 0.00 | 94 | 1016.7 |
| 20260904112007 | 26 | 173 | 4.8 | 4.8 | 0.00 | 0.00 | 0.00 | 93 | 1016.6 |
| 20260904111503 | 26 | 209 | 0.0 | 0.0 | 0.00 | 0.00 | 0.00 | 92 | 1016.7 |
| 20260904110958 | 26 | 165 | 4.8 | 4.8 | 0.00 | 0.00 | 0.00 | 92 | 1016.5 |
| 20260904110457 | 26 | 209 | 1.6 | 1.6 | 0.00 | 0.00 | 0.00 | 92 | 1016.7 |
| 20260904105952 | 26 | 192 | 1.6 | 1.6 | 0.00 | 0.00 | 0.00 | 92 | 1016.6 |
| 20260904105452 | 26 | 212 | 1.6 | 3.2 | 0.00 | 0.00 | 0.00 | 92 | 1016.4 |
| 20260904104947 | 26 | 211 | 1.6 | 3.2 | 0.00 | 0.00 | 0.00 | 92 | 1016.5 |
| 20260904104442 | 26 | 211 | 0.0 | 0.0 | 0.00 | 0.00 | 0.00 | 92 | 1016.3 |
| 20260904103938 | 26 | 191 | 1.6 | 3.2 | 0.00 | 0.00 | 0.00 | 91 | 1016.4 |
| 20260904103434 | 26 | 211 | 0.0 | 0.0 | 0.00 | 0.00 | 0.00 | 91 | 1016.3 |
| 20260904102930 | 26 | 188 | 3.2 | 3.2 | 0.00 | 0.00 | 0.00 | 91 | 1016.3 |
| 20260904102425 | 26 | 212 | 3.2 | 3.2 | 0.00 | 0.00 | 0.00 | 91 | 1016.3 |
| 20260904101921 | 26 | 189 | 1.6 | 1.6 | 0.00 | 0.00 | 0.00 | 91 | 1016.3 |
| 20260904101417 | 26 | 208 | 1.6 | 1.6 | 0.00 | 0.00 | 0.00 | 91 | 1016.4 |
| 20260904100913 | 26 | 207 | 1.6 | 1.6 | 0.00 | 0.00 | 0.00 | 91 | 1016.3 |
| 20260904100409 | 26 | 207 | 1.6 | 1.6 | 0.00 | 0.00 | 0.00 | 91 | 1016.1 |
| 20260904095908 | 26 | 210 | 0.0 | 1.6 | 0.00 | 0.00 | 0.00 | 91 | 1016.3 |
| 20260904095403 | 26 | 207 | 1.6 | 1.6 | 0.00 | 0.00 | 0.00 | 91 | 1016.3 |
| 20260904094858 | 26 | 207 | 0.0 | 0.0 | 0.00 | 0.00 | 0.00 | 91 | 1016.2 |
| 20260904094353 | 26 | 209 | 1.6 | 3.2 | 0.00 | 0.00 | 0.00 | 90 | 1016.2 |
| 20260904093850 | 26 | 209 | 0.0 | 1.6 | 0.00 | 0.00 | 0.00 | 90 | 1016.2 |
| 20260904093349 | 26 | 207 | 3.2 | 4.8 | 0.00 | 0.00 | 0.00 | 90 | 1016.3 |
| 20260904092845 | 26 | 177 | 3.2 | 3.2 | 0.00 | 0.00 | 0.00 | 90 | 1015.9 |
| 20260904092342 | 26 | 205 | 1.6 | 1.6 | 0.00 | 0.00 | 0.00 | 90 | 1015.8 |
| 20260904091837 | 26 | 211 | 3.2 | 3.2 | 0.00 | 0.00 | 0.00 | 90 | 1016.0 |
| 20260904091333 | 26 | 206 | 1.6 | 1.6 | 0.00 | 0.00 | 0.00 | 90 | 1015.9 |
| 20260904090827 | 26 | 205 | 0.0 | 1.6 | 0.00 | 0.00 | 0.00 | 89 | 1016.3 |
| 20260904090324 | 26 | 205 | 1.6 | 1.6 | 0.00 | 0.00 | 0.00 | 89 | 1016.2 |
| 20260904085818 | 26 | 219 | 0.0 | 0.0 | 0.00 | 0.00 | 0.00 | 89 | 1016.1 |
| 20260904085314 | 26 | 203 | 0.0 | 1.6 | 0.00 | 0.00 | 0.00 | 89 | 1016.3 |
| 20260904084808 | 26 | 219 | 0.0 | 0.0 | 0.00 | 0.00 | 0.00 | 89 | 1016.2 |
| 20260904084304 | 26 | 208 | 0.0 | 3.2 | 0.00 | 0.00 | 0.00 | 89 | 1016.1 |
| 20260904083800 | 26 | 203 | 0.0 | 1.6 | 0.00 | 0.00 | 0.00 | 89 | 1016.3 |
| 20260904083256 | 26 | 220 | 0.0 | 0.0 | 0.00 | 0.00 | 0.00 | 89 | 1016.1 |
| 20260904082751 | 26 | 220 | 0.0 | 0.0 | 0.00 | 0.00 | 0.00 | 89 | 1016.1 |
| 20260904082245 | 26 | 203 | 0.0 | 1.6 | 0.00 | 0.00 | 0.00 | 89 | 1016.2 |
| 20260904081741 | 26 | 203 | 0.0 | 1.6 | 0.00 | 0.00 | 0.00 | 89 | 1016.1 |
| 20260904081237 | 26 | 199 | 1.6 | 3.2 | 0.00 | 0.00 | 0.00 | 89 | 1016.3 |
| 20260904080732 | 26 | 200 | 1.6 | 3.2 | 0.00 | 0.00 | 0.00 | 89 | 1016.2 |
| 20260904080228 | 26 | 209 | 1.6 | 1.6 | 0.00 | 0.00 | 0.00 | 89 | 1016.2 |
| 20260904075724 | 26 | 186 | 4.8 | 4.8 | 0.00 | 0.00 | 0.00 | 89 | 1016.2 |
| 20260904075219 | 26 | 184 | 4.8 | 8.0 | 0.00 | 0.00 | 0.00 | 88 | 1016.3 |
| 20260904074718 | 26 | 206 | 0.0 | 1.6 | 0.00 | 0.00 | 0.00 | 88 | 1015.9 |
| 20260904074212 | 26 | 199 | 3.2 | 4.8 | 0.00 | 0.00 | 0.00 | 88 | 1016.3 |
| 20260904073708 | 26 | 216 | 3.2 | 3.2 | 0.00 | 0.00 | 0.00 | 88 | 1016.3 |
| 20260904073204 | 26 | 201 | 4.8 | 4.8 | 0.00 | 0.00 | 0.00 | 87 | 1016.1 |
| 20260904072700 | 26 | 203 | 0.0 | 0.0 | 0.00 | 0.00 | 0.00 | 87 | 1016.2 |
| 20260904072154 | 26 | 167 | 1.6 | 3.2 | 0.00 | 0.00 | 0.00 | 87 | 1016.3 |
| 20260904071650 | 26 | 198 | 4.8 | 4.8 | 0.00 | 0.00 | 0.00 | 87 | 1016.3 |
| 20260904071145 | 27 | 199 | 1.6 | 3.2 | 0.00 | 0.00 | 0.00 | 86 | 1016.4 |
| 20260904070644 | 27 | 176 | 3.2 | 3.2 | 0.00 | 0.00 | 0.00 | 86 | 1016.6 |
| 20260904070143 | 27 | 159 | 6.4 | 9.7 | 0.00 | 0.00 | 0.00 | 86 | 1016.6 |
| 20260904065638 | 27 | 223 | 0.0 | 1.6 | 0.00 | 0.00 | 0.00 | 85 | 1016.7 |
| 20260904065136 | 27 | 163 | 4.8 | 4.8 | 0.00 | 0.00 | 0.00 | 85 | 1016.7 |
| 20260904064631 | 27 | 162 | 6.4 | 8.0 | 0.00 | 0.00 | 0.00 | 85 | 1016.7 |
| 20260904064131 | 27 | 198 | 4.8 | 4.8 | 0.00 | 0.00 | 0.00 | 85 | 1016.7 |
| 20260904063627 | 27 | 223 | 0.0 | 0.0 | 0.00 | 0.00 | 0.00 | 85 | 1016.5 |
| 20260904063122 | 27 | 217 | 0.0 | 0.0 | 0.00 | 0.00 | 0.00 | 84 | 1016.6 |
| 20260904062618 | 27 | 162 | 3.2 | 4.8 | 0.00 | 0.00 | 0.00 | 85 | 1016.7 |
| 20260904062113 | 27 | 211 | 1.6 | 1.6 | 0.00 | 0.00 | 0.00 | 84 | 1016.4 |
| 20260904061609 | 27 | 199 | 0.0 | 0.0 | 0.00 | 0.00 | 0.00 | 84 | 1016.4 |
| 20260904061105 | 27 | 181 | 6.4 | 9.7 | 0.00 | 0.00 | 0.00 | 84 | 1016.3 |
| 20260904060601 | 27 | 201 | 1.6 | 1.6 | 0.00 | 0.00 | 0.00 | 84 | 1016.6 |
| 20260904060057 | 27 | 204 | 1.6 | 1.6 | 0.00 | 0.00 | 0.00 | 84 | 1016.5 |
| 20260904055552 | 27 | 177 | 4.8 | 4.8 | 0.00 | 0.00 | 0.00 | 83 | 1016.4 |
| 20260904055047 | 27 | 130 | 4.8 | 9.7 | 0.00 | 0.00 | 0.00 | 84 | 1016.3 |
| 20260904054543 | 27 | 187 | 4.8 | 4.8 | 0.00 | 0.00 | 0.00 | 84 | 1016.4 |
| 20260904054039 | 27 | 203 | 1.6 | 3.2 | 0.00 | 0.00 | 0.00 | 84 | 1016.3 |
| 20260904053538 | 27 | 153 | 3.2 | 4.8 | 0.00 | 0.00 | 0.00 | 83 | 1016.4 |
| 20260904053034 | 27 | 201 | 4.8 | 4.8 | 0.00 | 0.00 | 0.00 | 83 | 1016.2 |
| 20260904052530 | 27 | 187 | 3.2 | 3.2 | 0.00 | 0.00 | 0.00 | 84 | 1016.3 |
| 20260904052026 | 27 | 156 | 1.6 | 4.8 | 0.00 | 0.00 | 0.00 | 84 | 1016.2 |
| 20260904051522 | 27 | 183 | 1.6 | 1.6 | 0.00 | 0.00 | 0.00 | 83 | 1016.3 |
| 20260904051021 | 27 | 203 | 4.8 | 8.0 | 0.00 | 0.00 | 0.00 | 83 | 1015.9 |
| 20260904050517 | 27 | 200 | 8.0 | 9.7 | 0.00 | 0.00 | 0.00 | 83 | 1016.1 |
| 20260904050013 | 27 | 129 | 4.8 | 8.0 | 0.00 | 0.00 | 0.00 | 82 | 1016.0 |
| 20260904045508 | 27 | 178 | 8.0 | 11.3 | 0.00 | 0.00 | 0.00 | 82 | 1016.1 |
| 20260904045003 | 27 | 110 | 4.8 | 8.0 | 0.00 | 0.00 | 0.00 | 82 | 1016.2 |
| 20260904044458 | 27 | 186 | 9.7 | 11.3 | 0.00 | 0.00 | 0.00 | 82 | 1016.2 |
| 20260904043955 | 27 | 150 | 8.0 | 9.7 | 0.00 | 0.00 | 0.00 | 82 | 1016.1 |
| 20260904043451 | 27 | 152 | 1.6 | 1.6 | 0.00 | 0.00 | 0.00 | 82 | 1016.2 |
| 20260904042946 | 27 | 195 | 4.8 | 8.0 | 0.00 | 0.00 | 0.00 | 82 | 1016.1 |
| 20260904042443 | 27 | 203 | 1.6 | 1.6 | 0.00 | 0.00 | 0.00 | 81 | 1016.1 |
| 20260904041937 | 27 | 207 | 6.4 | 9.7 | 0.00 | 0.00 | 0.00 | 81 | 1016.1 |
| 20260904041434 | 27 | 181 | 4.8 | 4.8 | 0.00 | 0.00 | 0.00 | 81 | 1016.2 |
| 20260904040930 | 27 | 174 | 3.2 | 3.2 | 0.00 | 0.00 | 0.00 | 81 | 1016.2 |
| 20260904040429 | 27 | 177 | 6.4 | 9.7 | 0.00 | 0.00 | 0.00 | 81 | 1016.0 |
| 20260904035925 | 27 | 234 | 3.2 | 3.2 | 0.00 | 0.00 | 0.00 | 80 | 1016.0 |
| 20260904035421 | 27 | 167 | 3.2 | 4.8 | 0.00 | 0.00 | 0.00 | 80 | 1015.9 |
| 20260904034920 | 27 | 147 | 9.7 | 11.3 | 0.00 | 0.00 | 0.00 | 80 | 1016.0 |
| 20260904034415 | 27 | 137 | 6.4 | 11.3 | 0.00 | 0.00 | 0.00 | 79 | 1015.8 |
| 20260904033911 | 27 | 190 | 4.8 | 8.0 | 0.00 | 0.00 | 0.00 | 79 | 1015.9 |
| 20260904033408 | 27 | 183 | 8.0 | 9.7 | 0.00 | 0.00 | 0.00 | 78 | 1016.0 |
| 20260904032903 | 27 | 200 | 6.4 | 8.0 | 0.00 | 0.00 | 0.00 | 78 | 1015.7 |
| 20260904032358 | 28 | 163 | 4.8 | 4.8 | 0.00 | 0.00 | 0.00 | 78 | 1015.7 |
| 20260904031852 | 28 | 169 | 9.7 | 11.3 | 0.00 | 0.00 | 0.00 | 77 | 1015.9 |
| 20260904031348 | 28 | 167 | 8.0 | 9.7 | 0.00 | 0.00 | 0.00 | 77 | 1015.9 |
| 20260904030844 | 28 | 206 | 4.8 | 9.7 | 0.00 | 0.00 | 0.00 | 76 | 1015.8 |
| 20260904030339 | 28 | 188 | 4.8 | 9.7 | 0.00 | 0.00 | 0.00 | 76 | 1015.8 |
| 20260904025835 | 28 | 128 | 9.7 | 11.3 | 0.00 | 0.00 | 0.00 | 75 | 1015.9 |
| 20260904025331 | 28 | 165 | 6.4 | 8.0 | 0.00 | 0.00 | 0.00 | 75 | 1015.6 |
| 20260904024830 | 28 | 167 | 6.4 | 9.7 | 0.00 | 0.00 | 0.00 | 74 | 1015.6 |
| 20260904024325 | 28 | 181 | 4.8 | 9.7 | 0.00 | 0.00 | 0.00 | 74 | 1015.6 |
| 20260904023822 | 28 | 203 | 8.0 | 9.7 | 0.00 | 0.00 | 0.00 | 73 | 1015.3 |
| 20260904023318 | 28 | 208 | 6.4 | 8.0 | 0.00 | 0.00 | 0.00 | 73 | 1015.2 |
| 20260904022816 | 28 | 136 | 8.0 | 9.7 | 0.00 | 0.00 | 0.00 | 72 | 1015.2 |
| 20260904022314 | 28 | 187 | 6.4 | 9.7 | 0.00 | 0.00 | 0.00 | 72 | 1015.2 |
| 20260904021810 | 29 | 167 | 8.0 | 11.3 | 0.00 | 0.00 | 0.00 | 72 | 1015.3 |
| 20260904021310 | 29 | 189 | 9.7 | 11.3 | 0.00 | 0.00 | 0.00 | 71 | 1015.2 |
| 20260904020805 | 29 | 199 | 3.2 | 3.2 | 0.00 | 0.00 | 0.00 | 71 | 1015.2 |
| 20260904020300 | 29 | 162 | 9.7 | 11.3 | 0.00 | 0.00 | 0.00 | 71 | 1014.9 |
| 20260904015758 | 29 | 201 | 4.8 | 8.0 | 0.00 | 0.00 | 0.00 | 71 | 1015.1 |
| 20260904015254 | 29 | 187 | 8.0 | 11.3 | 0.00 | 0.00 | 0.00 | 70 | 1014.9 |
| 20260904014752 | 29 | 177 | 3.2 | 3.2 | 0.00 | 0.00 | 0.00 | 70 | 1014.9 |
| 20260904014248 | 29 | 205 | 3.2 | 4.8 | 0.00 | 0.00 | 0.00 | 70 | 1015.0 |
| 20260904013744 | 30 | 193 | 6.4 | 8.0 | 0.00 | 0.00 | 0.00 | 69 | 1014.9 |
| 20260904013240 | 30 | 171 | 3.2 | 4.8 | 0.00 | 0.00 | 0.00 | 69 | 1014.6 |
| 20260904012736 | 30 | 191 | 6.4 | 8.0 | 0.00 | 0.00 | 0.00 | 69 | 1014.4 |
| 20260904012235 | 30 | 201 | 6.4 | 12.9 | 0.00 | 0.00 | 0.00 | 69 | 1014.3 |
| 20260904011734 | 30 | 200 | 6.4 | 11.3 | 0.00 | 0.00 | 0.00 | 68 | 1014.4 |
| 20260904011230 | 30 | 191 | 4.8 | 11.3 | 0.00 | 0.00 | 0.00 | 68 | 1014.4 |
| 20260904010725 | 30 | 198 | 8.0 | 9.7 | 0.00 | 0.00 | 0.00 | 68 | 1014.3 |
| 20260904010221 | 30 | 186 | 8.0 | 11.3 | 0.00 | 0.00 | 0.00 | 67 | 1014.3 |
| 20260904005716 | 30 | 156 | 11.3 | 16.1 | 0.00 | 0.00 | 0.00 | 67 | 1014.3 |
| 20260904005212 | 30 | 207 | 19.3 | 24.1 | 0.00 | 0.00 | 0.00 | 67 | 1014.4 |
| 20260904004712 | 30 | 147 | 6.4 | 8.0 | 0.00 | 0.00 | 0.00 | 67 | 1014.4 |
| 20260904004207 | 30 | 187 | 11.3 | 14.5 | 0.00 | 0.00 | 0.00 | 67 | 1014.3 |
| 20260904003702 | 31 | 211 | 0.0 | 1.6 | 0.00 | 0.00 | 0.00 | 67 | 1014.5 |
| 20260904003159 | 31 | 155 | 8.0 | 9.7 | 0.00 | 0.00 | 0.00 | 66 | 1014.4 |
| 20260904002654 | 31 | 152 | 6.4 | 8.0 | 0.00 | 0.00 | 0.00 | 66 | 1014.5 |